Date,TemperatureHighF,TemperatureAvgF,TemperatureLowF,DewpointHighF,DewpointAvgF,DewpointLowF,HumidityHigh,HumidityAvg,HumidityLow,PressureMaxIn,PressureMinIn,WindSpeedMaxMPH,WindSpeedAvgMPH,GustSpeedMaxMPH,PrecipitationSumIn
2013-1-1,36.0,28.6,22.0,27.0,23.3,19.0,93,82,59,30.24,30.05,15,8,17,0.00
2013-1-2,42.0,30.6,22.0,26.0,22.8,21.0,98,77,43,30.30,30.16,18,8,21,0.00
2013-1-3,37.0,29.1,22.0,25.0,21.0,16.0,95,75,43,30.42,30.30,10,6,11,0.00
2013-1-4,32.0,30.2,28.0,28.0,27.1,25.0,99,90,82,30.40,30.22,16,9,22,0.00
2013-1-5,53.0,36.6,27.0,27.0,21.0,11.0,95,61,18,30.34,30.14,22,14,28,0.00
2013-1-6,50.0,33.9,22.0,25.0,20.6,18.0,93,64,29,30.43,30.25,11,7,13,0.00
2013-1-7,50.0,37.0,27.0,25.0,22.0,20.0,81,58,32,30.25,30.01,19,10,23,0.00
2013-1-8,50.0,37.4,26.0,39.0,31.0,23.0,97,80,63,30.12,29.94,11,6,15,0.00
2013-1-9,47.0,38.5,32.0,40.0,32.5,25.0,99,83,51,30.30,29.99,30,16,37,0.91
2013-1-10,53.0,42.4,37.0,43.0,38.8,36.0,100,90,71,30.04,29.83,20,12,26,0.04
2013-1-11,63.0,47.5,38.0,44.0,36.0,21.0,94,69,35,29.86,29.70,24,14,31,0.00
2013-1-12,40.0,34.1,24.0,27.0,23.1,20.0,95,66,51,30.00,29.84,18,10,23,0.00
2013-1-13,32.0,25.5,20.0,23.0,18.5,15.0,94,77,54,30.20,30.00,13,9,16,0.00
2013-1-14,27.0,23.0,19.0,15.0,11.2,8.0,77,62,49,30.24,30.13,14,10,18,0.00
2013-1-15,33.0,24.4,18.0,18.0,15.2,11.0,88,70,46,30.21,30.14,16,6,19,0.00
2013-1-16,51.0,32.0,18.0,25.0,19.5,13.0,87,64,35,30.33,30.17,22,11,27,0.00
2013-1-17,54.0,39.1,27.0,27.0,24.1,22.0,87,60,29,30.54,30.33,10,7,13,0.00
2013-1-18,60.0,41.5,28.0,29.0,25.3,22.0,89,59,23,30.46,30.16,23,12,28,0.00
2013-1-19,66.0,44.9,31.0,28.0,21.0,10.0,83,47,11,30.27,30.10,19,11,22,0.00
2013-1-20,65.0,42.8,25.0,24.0,18.6,12.0,79,46,12,30.27,30.07,15,9,19,0.00
2013-1-21,47.0,34.3,24.0,25.0,22.9,20.0,95,66,39,30.34,30.16,13,8,17,0.00
2013-1-22,67.0,41.8,23.0,33.0,24.0,12.0,90,59,11,30.23,30.11,18,10,22,0.00
2013-1-23,75.0,46.5,27.0,29.0,18.3,6.0,84,44,7,30.25,30.13,16,9,19,0.00
2013-1-24,77.0,54.9,35.0,25.0,15.8,8.0,46,25,7,30.22,30.05,19,11,25,0.00
2013-1-25,61.0,50.9,38.0,32.0,27.2,24.0,69,42,25,30.22,30.05,17,10,22,0.00
2013-1-26,66.0,50.0,35.0,46.0,35.1,27.0,83,60,38,30.18,29.97,19,10,23,0.00
2013-1-27,73.0,60.2,51.0,53.0,42.4,31.0,99,61,21,29.99,29.86,32,18,41,0.00
2013-1-28,72.0,56.1,42.0,51.0,33.4,20.0,80,49,15,29.95,29.77,28,14,35,0.00
2013-1-29,51.0,44.4,31.0,34.0,25.2,6.0,90,50,21,29.83,29.60,32,16,39,0.00
2013-1-30,49.0,34.9,23.0,26.0,11.2,-1.0,83,44,13,30.13,29.83,26,15,32,0.00
2013-1-31,62.0,51.2,29.0,21.0,12.9,7.0,61,25,11,30.26,30.09,24,10,28,0.00
2013-2-1,64.0,41.5,25.0,26.0,20.1,10.0,94,52,12,30.26,30.04,24,13,32,0.00
2013-2-2,60.0,45.0,30.0,24.0,16.6,12.0,67,36,15,30.35,30.09,18,10,24,0.00
2013-2-3,60.0,45.8,30.0,42.0,26.6,15.0,73,49,30,30.35,29.93,23,12,30,0.00
2013-2-4,64.0,51.1,42.0,42.0,22.7,9.0,76,39,12,29.99,29.84,21,12,26,0.00
2013-2-5,70.0,48.5,31.0,27.0,15.3,9.0,58,32,9,30.01,29.92,14,8,19,0.00
2013-2-6,72.0,52.4,35.0,38.0,26.3,17.0,89,43,13,29.98,29.78,20,11,27,0.00
2013-2-7,59.0,49.6,35.0,26.0,22.5,18.0,50,36,25,30.23,29.84,32,16,41,0.00
2013-2-8,57.0,42.8,28.0,26.0,17.4,14.0,70,40,19,30.25,30.00,19,12,24,0.00
2013-2-9,71.0,52.4,40.0,40.0,25.4,8.0,60,38,11,30.00,29.57,33,19,42,0.00
2013-2-10,57.0,44.7,36.0,21.0,7.2,1.0,46,23,11,29.99,29.78,31,16,39,0.00
2013-2-11,53.0,41.5,29.0,27.0,18.6,3.0,60,41,20,30.11,29.93,25,16,30,0.00
2013-2-12,40.0,35.4,30.0,37.0,31.6,27.0,100,89,60,30.11,29.86,25,12,32,0.41
2013-2-13,55.0,38.1,27.0,29.0,24.0,16.0,98,65,21,30.10,29.95,15,9,21,0.00
2013-2-14,59.0,41.1,27.0,33.0,24.7,20.0,82,58,25,30.18,29.95,23,8,29,0.00
2013-2-15,42.0,34.6,28.0,32.0,24.6,20.0,88,69,41,30.40,30.18,22,10,27,0.00
2013-2-16,64.0,40.9,23.0,26.0,18.4,7.0,90,51,10,30.39,30.07,17,10,23,0.00
2013-2-17,70.0,49.1,26.0,19.0,11.1,-2.0,64,30,5,30.07,29.73,26,16,34,0.00
2013-2-18,54.0,45.3,35.0,25.0,18.0,8.0,50,35,18,30.11,29.72,22,14,30,0.00
2013-2-19,55.0,43.6,33.0,40.0,20.3,14.0,96,44,19,30.21,29.99,25,15,31,0.01
2013-2-20,42.0,39.5,37.0,41.0,38.1,36.0,100,97,92,30.00,29.58,25,19,31,0.35
2013-2-21,51.0,39.6,30.0,38.0,33.1,28.0,100,81,53,29.94,29.59,31,14,40,0.27
2013-2-22,45.0,33.6,25.0,31.0,25.6,21.0,97,75,50,30.06,29.93,17,7,22,0.00
2013-2-23,60.0,42.4,27.0,27.0,19.0,6.0,96,49,11,29.99,29.76,19,12,24,0.00
2013-2-24,68.0,47.1,33.0,31.0,21.7,10.0,82,45,11,29.76,29.53,33,14,40,0.00
2013-2-25,35.0,30.5,26.0,30.0,27.3,22.0,100,91,75,29.92,29.64,43,28,53,0.23
2013-2-26,56.0,34.2,17.0,39.0,25.0,15.0,95,73,33,29.91,29.73,17,7,21,0.08
2013-2-27,44.0,34.8,29.0,30.0,27.1,24.0,89,75,53,30.27,29.91,26,16,32,0.00
2013-2-28,52.0,36.9,25.0,29.0,25.3,21.0,93,68,31,30.32,30.20,11,7,16,0.00
2013-3-1,54.0,39.7,27.0,31.0,23.9,17.0,94,61,24,30.32,30.20,19,10,25,0.00
2013-3-2,66.0,45.8,27.0,29.0,24.5,19.0,89,52,17,30.39,30.20,15,9,19,0.00
2013-3-3,80.0,56.6,34.0,24.0,17.8,9.0,65,30,7,30.20,29.73,27,15,34,0.00
2013-3-4,79.0,67.9,45.0,36.0,22.9,13.0,55,21,11,30.09,29.67,42,20,52,0.00
2013-3-5,52.0,40.8,29.0,29.0,20.3,12.0,82,48,25,30.45,30.09,42,11,52,0.00
2013-3-6,61.0,45.4,28.0,18.0,14.9,12.0,60,33,15,30.35,30.05,26,16,34,0.00
2013-3-7,75.0,54.6,34.0,36.0,21.0,15.0,54,30,11,30.07,29.95,21,12,25,0.00
2013-3-8,77.0,61.5,50.0,53.0,42.9,35.0,80,56,22,30.00,29.79,25,18,33,0.00
2013-3-9,63.0,56.3,43.0,53.0,30.5,8.0,94,48,11,29.84,29.70,35,19,47,0.00
2013-3-10,49.0,40.5,31.0,28.0,16.2,7.0,69,41,18,30.15,29.84,33,24,44,0.00
2013-3-11,68.0,45.9,24.0,22.0,14.6,10.0,69,34,10,30.15,29.92,20,11,27,0.00
2013-3-12,58.0,48.2,38.0,30.0,22.2,13.0,69,38,24,30.35,29.93,30,17,38,0.00
2013-3-13,69.0,49.2,31.0,31.0,26.2,23.0,85,48,17,30.40,30.23,19,10,28,0.00
2013-3-14,81.0,59.0,37.0,31.0,23.8,18.0,60,32,10,30.27,30.13,20,9,25,0.00
2013-3-15,86.0,63.6,42.0,35.0,22.8,12.0,68,29,6,30.17,29.86,22,12,28,0.00
2013-3-16,74.0,60.2,41.0,38.0,30.6,16.0,66,36,16,29.87,29.76,17,12,24,0.00
2013-3-17,76.0,55.1,37.0,39.0,32.0,19.0,83,49,11,29.89,29.64,37,12,48,0.00
2013-3-18,69.0,54.0,43.0,31.0,24.0,14.0,62,33,16,30.05,29.70,23,12,28,0.00
2013-3-19,64.0,50.4,37.0,37.0,31.5,27.0,76,52,25,30.19,29.94,22,10,26,0.00
2013-3-20,63.0,48.6,31.0,38.0,26.6,18.0,93,52,18,30.35,29.95,20,11,24,0.00
2013-3-21,79.0,62.2,47.0,42.0,26.5,12.0,80,34,10,29.95,29.51,35,18,45,0.00
2013-3-22,64.0,49.3,40.0,42.0,33.5,8.0,97,63,12,29.89,29.61,21,11,25,0.00
2013-3-23,74.0,49.7,29.0,40.0,25.7,-17.0,95,57,2,30.00,29.58,45,19,58,0.00
2013-3-24,48.0,33.8,23.0,20.0,9.7,3.0,69,42,16,30.22,30.00,35,14,54,0.00
2013-3-25,49.0,35.3,20.0,18.0,11.0,3.0,65,39,21,30.34,30.14,16,7,21,0.00
2013-3-26,62.0,44.1,25.0,12.0,10.5,8.0,53,29,12,30.35,30.10,25,15,35,0.00
2013-3-27,77.0,56.6,33.0,33.0,21.9,10.0,56,30,11,30.11,29.97,20,14,25,0.00
2013-3-28,82.0,61.4,38.0,39.0,28.9,17.0,87,39,10,30.12,29.99,20,10,25,0.00
2013-3-29,79.0,64.3,50.0,52.0,44.3,27.0,93,56,15,30.11,29.97,21,10,26,0.00
2013-3-30,83.0,65.0,43.0,49.0,32.7,-99.9,91,44,9,30.05,29.91,13,9,21,0.00
2013-3-31,70.0,60.3,50.0,44.0,40.4,38.0,78,51,32,30.13,29.91,30,10,37,0.00
2013-4-1,85.0,63.5,45.0,50.0,40.1,24.0,81,51,11,30.05,29.84,30,15,37,0.00
2013-4-2,56.0,39.4,35.0,49.0,37.0,34.0,100,93,81,30.11,29.97,22,18,28,0.00
2013-4-3,47.0,38.6,34.0,35.0,32.7,29.0,99,82,59,30.20,30.07,19,14,25,0.01
2013-4-4,71.0,47.9,26.0,36.0,28.0,22.0,94,58,15,30.22,30.11,15,8,18,0.00
2013-4-5,80.0,59.0,37.0,39.0,30.0,19.0,89,45,11,30.18,29.89,28,16,37,0.00
2013-4-6,78.0,63.4,45.0,40.0,34.6,27.0,76,39,18,29.93,29.84,25,12,32,0.00
2013-4-7,86.0,66.3,45.0,40.0,28.9,16.0,74,35,9,29.88,29.66,22,11,32,0.00
2013-4-8,86.0,69.6,48.0,36.0,23.0,18.0,42,19,9,29.70,29.51,30,16,40,0.00
2013-4-9,77.0,60.8,34.0,59.0,38.5,15.0,92,49,13,29.93,29.51,31,23,39,0.00
2013-4-10,51.0,35.7,21.0,20.0,14.5,11.0,93,46,22,30.08,29.91,25,17,32,0.00
2013-4-11,67.0,47.3,27.0,20.0,15.7,12.0,58,32,11,29.98,29.76,18,8,27,0.00
2013-4-12,76.0,60.5,46.0,39.0,23.7,17.0,46,26,13,29.97,29.81,21,10,29,0.00
2013-4-13,76.0,60.3,44.0,50.0,41.0,36.0,77,53,25,29.92,29.69,28,14,34,0.00
2013-4-14,85.0,68.2,49.0,51.0,33.6,17.0,98,45,8,29.70,29.55,27,18,38,0.00
2013-4-15,86.0,66.0,47.0,30.0,23.3,16.0,50,23,8,29.79,29.63,24,12,32,0.00
2013-4-16,80.0,62.3,46.0,48.0,32.7,17.0,72,36,15,29.95,29.73,22,13,28,0.00
2013-4-17,90.0,70.6,44.0,61.0,35.8,4.0,90,47,5,29.82,29.54,36,20,45,0.00
2013-4-18,52.0,41.6,31.0,35.0,19.7,11.0,75,46,22,30.19,29.82,33,21,40,0.00
2013-4-19,64.0,45.0,24.0,15.0,10.2,6.0,57,29,11,30.30,30.05,18,10,26,0.00
2013-4-20,78.0,59.7,40.0,21.0,12.5,2.0,35,18,5,30.05,29.78,26,16,32,0.00
2013-4-21,79.0,63.1,40.0,36.0,21.2,9.0,44,23,9,30.06,29.92,21,10,25,0.00
2013-4-22,88.0,69.4,46.0,43.0,29.7,12.0,75,33,6,29.98,29.74,22,14,27,0.00
2013-4-23,69.0,39.0,32.0,39.0,27.5,24.0,80,65,23,30.27,29.79,34,23,45,0.00
2013-4-24,33.0,29.6,27.0,24.0,21.5,20.0,77,73,67,30.30,30.27,19,9,23,0.00
2013-4-26,84.0,75.3,59.0,39.0,28.6,19.0,47,21,9,30.15,29.97,27,20,33,0.00
2013-4-27,80.0,63.3,42.0,43.0,34.5,24.0,80,42,12,30.22,30.04,15,8,19,0.00
2013-4-28,85.0,67.8,47.0,52.0,34.2,28.0,55,33,12,30.06,29.87,21,12,30,0.00
2013-4-29,88.0,71.8,52.0,45.0,34.8,26.0,70,32,11,29.92,29.71,25,17,34,0.00
2013-4-30,92.0,74.0,54.0,54.0,38.2,23.0,74,35,10,29.77,29.64,24,14,31,0.00
2013-5-1,78.0,68.8,62.0,51.0,40.7,31.0,64,38,18,30.00,29.71,31,23,39,0.00
2013-5-3,69.0,57.2,31.0,17.0,12.2,9.0,53,18,10,30.41,30.04,16,11,23,0.00
2013-5-4,74.0,56.4,34.0,19.0,15.2,9.0,43,21,11,30.11,29.99,12,8,18,0.00
2013-5-5,73.0,55.9,36.0,29.0,19.1,14.0,45,26,13,30.24,30.09,13,7,17,0.00
2013-5-6,64.0,54.9,50.0,41.0,34.8,19.0,62,49,24,30.15,30.09,19,11,23,0.00
2013-5-9,82.0,76.8,70.0,47.0,36.3,26.0,44,25,13,29.94,29.90,16,11,22,0.00
2013-6-12,94.0,81.6,66.0,62.0,56.6,51.0,81,47,23,30.10,30.00,19,14,26,0.00
2013-6-13,93.0,80.2,68.0,64.0,57.7,52.0,77,51,26,30.15,29.99,30,13,37,0.00
2013-6-14,82.0,73.3,68.0,65.0,62.3,58.0,89,71,45,30.09,29.99,24,12,30,0.00
2013-6-15,87.0,75.5,67.0,66.0,62.2,55.0,96,69,33,30.09,29.96,23,12,28,0.02
2013-6-16,94.0,81.4,67.0,67.0,60.9,53.0,94,57,25,30.09,29.94,20,13,25,0.00
2013-6-17,94.0,80.1,71.0,67.0,62.9,56.0,84,61,28,30.07,29.97,18,11,21,0.00
2013-6-18,83.0,79.1,72.0,62.0,59.1,56.0,67,52,40,30.13,30.01,15,11,20,0.00
2013-6-19,83.0,74.5,68.0,66.0,62.5,53.0,84,69,51,30.08,29.94,30,19,37,0.11
2013-6-20,94.0,76.1,70.0,64.0,61.4,53.0,80,64,26,30.01,29.91,27,19,36,0.00
2013-6-22,96.0,88.3,75.0,62.0,58.0,55.0,60,38,25,29.99,29.84,30,21,36,0.00
2013-6-23,99.0,83.0,70.0,58.0,53.4,41.0,56,40,14,29.94,29.83,27,18,34,0.00
2013-6-24,96.0,81.9,71.0,63.0,59.0,54.0,69,50,28,30.00,29.87,29,21,36,0.00
2013-6-25,101.0,83.7,72.0,63.0,54.8,37.0,68,45,11,29.98,29.87,27,14,35,0.00
2013-6-26,106.0,87.9,71.0,65.0,54.3,36.0,80,42,9,29.98,29.90,20,12,25,0.00
2013-6-27,103.0,87.2,73.0,63.0,55.3,43.0,71,40,13,30.08,29.97,18,13,24,0.00
2013-6-28,101.0,87.8,74.0,57.0,50.6,45.0,53,31,17,30.18,30.03,20,10,26,0.00
2013-6-29,98.0,83.7,69.0,61.0,54.4,47.0,75,41,18,30.17,29.94,26,12,34,0.10
2013-6-30,87.0,76.9,67.0,64.0,58.7,52.0,90,58,35,30.18,30.02,20,11,26,0.01
2013-7-1,83.0,75.5,68.0,61.0,51.9,43.0,75,47,27,30.23,30.12,19,9,23,0.00
2013-7-2,83.0,73.6,62.0,49.0,43.1,36.0,64,36,20,30.26,30.11,12,6,16,0.00
2013-7-3,86.0,75.3,62.0,42.0,39.7,37.0,47,29,19,30.17,29.99,18,11,23,0.00
2013-7-4,88.0,76.5,61.0,55.0,47.7,38.0,84,40,22,30.07,29.94,25,17,30,0.27
2013-7-5,94.0,81.7,65.0,55.0,48.7,45.0,63,35,19,30.03,29.88,23,17,30,0.00
2013-7-6,94.0,79.9,68.0,55.0,47.8,42.0,54,35,16,30.01,29.89,26,16,33,0.00
2013-7-7,92.0,82.7,71.0,57.0,49.3,45.0,52,33,20,30.09,29.98,19,14,25,0.00
2013-7-8,94.0,79.9,69.0,60.0,52.2,-99.9,59,42,21,30.17,30.06,17,9,22,0.00
2013-7-9,94.0,82.7,71.0,60.0,56.4,51.0,69,44,26,30.20,30.07,19,13,24,0.00
2013-7-19,84.0,73.9,64.0,66.0,62.8,59.0,98,73,44,30.19,30.02,16,10,21,0.00
2013-7-20,87.0,75.9,66.0,64.0,59.4,-99.9,94,62,34,30.10,29.95,16,10,24,0.00
2013-7-21,90.0,78.8,66.0,64.0,60.3,55.0,91,58,32,30.04,29.94,20,12,24,0.00
2013-7-22,91.0,79.4,68.0,67.0,63.4,60.0,90,62,37,30.04,29.94,15,11,20,0.00
2013-7-23,94.0,82.2,70.0,67.0,63.4,56.0,88,58,29,30.04,29.94,15,10,20,0.00
2013-7-24,94.0,83.3,71.0,68.0,64.3,60.0,83,57,33,30.11,30.00,16,8,22,0.00
2013-7-25,87.0,76.9,71.0,72.0,64.8,57.0,81,69,47,30.17,30.07,17,10,22,0.02
2013-7-26,87.0,77.6,70.0,68.0,62.1,51.0,94,64,29,30.22,30.07,19,11,25,0.03
2013-7-27,87.0,75.1,62.0,63.0,55.2,43.0,92,57,23,30.23,30.02,14,7,17,0.00
2013-7-28,90.0,77.6,62.0,59.0,54.7,50.0,75,48,28,30.08,29.92,19,13,25,0.00
2013-7-29,94.0,81.1,70.0,67.0,62.8,55.0,89,59,27,30.03,29.96,24,13,31,0.00
2013-7-30,93.0,82.7,69.0,65.0,62.8,59.0,83,55,33,30.15,30.02,19,11,26,0.00
2013-7-31,95.0,83.6,71.0,68.0,64.2,58.0,88,57,31,30.23,30.10,15,8,20,0.00
2013-8-1,94.0,78.1,70.0,69.0,63.7,58.0,83,65,31,30.24,30.07,34,11,45,0.22
2013-8-2,98.0,83.8,69.0,65.0,54.7,44.0,81,44,16,30.07,29.95,19,11,25,0.00
2013-8-3,99.0,84.9,68.0,56.0,52.3,46.0,66,37,17,30.09,30.00,18,12,25,0.00
2013-8-4,95.0,82.5,66.0,59.0,54.0,49.0,75,41,21,30.17,30.03,17,10,26,0.00
2013-8-5,97.0,82.2,69.0,62.0,56.4,48.0,70,46,19,30.12,29.94,15,11,20,0.00
2013-8-6,102.0,86.0,69.0,58.0,53.4,47.0,64,37,17,29.99,29.86,17,10,23,0.00
2013-8-7,99.0,81.3,73.0,64.0,57.0,47.0,73,48,18,29.99,29.91,28,9,37,0.12
2013-8-8,95.0,81.2,68.0,62.0,56.2,48.0,77,47,21,29.99,29.89,18,9,23,0.00
2013-8-9,87.0,75.0,64.0,62.0,58.9,56.0,88,61,35,30.21,29.97,17,10,23,0.00
2013-8-10,88.0,75.1,65.0,62.0,58.1,50.0,94,61,28,30.29,30.13,14,8,19,0.00
2013-8-11,89.0,75.8,69.0,66.0,62.0,58.0,96,66,35,30.24,30.12,14,7,35,1.26
2013-8-12,89.0,77.5,70.0,67.0,64.4,58.0,90,68,36,30.19,30.07,15,8,19,0.01
2013-10-24,69.0,63.0,55.0,42.0,39.4,37.0,62,44,31,30.28,30.20,15,13,19,0.00
2013-10-25,61.0,50.6,44.0,46.0,39.6,36.0,77,69,61,30.40,30.22,17,11,21,0.00
2013-10-26,70.0,67.2,63.0,51.0,46.0,42.0,67,49,37,30.20,30.15,17,13,22,0.00
2013-10-27,71.0,52.5,39.0,35.0,31.6,27.0,82,56,21,30.23,30.01,12,8,15,0.00
2013-10-28,57.0,51.3,48.0,56.0,48.0,43.0,100,92,84,30.02,29.97,12,9,17,0.00
2013-12-20,43.0,35.7,30.0,36.0,25.7,16.0,100,72,35,29.92,29.70,19,10,23,0.28
2013-12-21,50.0,39.4,29.0,40.0,33.9,-99.9,100,87,59,29.82,29.50,22,10,28,0.04
2013-12-22,43.0,33.4,27.0,28.0,24.5,22.0,89,73,46,30.27,29.82,16,9,21,0.00
2013-12-23,49.0,34.7,26.0,28.0,25.4,23.0,96,74,36,30.44,30.26,15,8,19,0.00
2013-12-24,59.0,38.8,24.0,34.0,27.5,23.0,100,72,28,30.42,30.07,24,13,32,0.00
2013-12-25,48.0,37.1,25.0,32.0,27.7,19.0,98,73,39,30.44,30.12,26,13,32,0.00
2013-12-26,52.0,33.6,19.0,29.0,20.5,17.0,92,66,28,30.44,30.25,12,8,17,0.00